Погода в Булгунняхтахе

Россия / Республика Саха (Якутия)     61°18′00″N   128°39′34″E
темп.,
°C
ветер,
м/с
пор.,
м/с
влажн.,
%
обл.,
%
осадки,
мм/ч
давл.,
гПа
погр.,
м
27 февраля, сб
сб2700:00−29всв229680 0.0 103042
03:00−30в229678 0.0 102929
06:00−30в2395100 0.0 102864
09:00−28в2595100 0.0 1027175
12:00−23в249299 0.0 1025363
15:00−21всв3693100 0.0 1021447
18:00−22всв2696100 0.0 1021247
21:00−23св2696100 0.0 1018284
28 февраля, вс
вс2800:00−24ссв2499100 0.6 1018247
03:00−25ссз2499100 1.1 1017276
06:00−25сз2698100 0.2 1018388
09:00−24зсз4897100 0.6 1019645
12:00−24зсз5895100 0.5 1022793
15:00−25з5994100 0.9 1022812
18:00−25з4996100 0.3 1025823
21:00−26зсз3997100 0.6 1026832
1 марта, пн
пн100:00−26з4996100 0.3 1026826
03:00−27з4996100 0.4 1027733
06:00−27з3996100 0.1 1027684
09:00−27з4994100 0.3 1027774
12:00−25зсз4891100 0.2 1027888
15:00−25зсз4790100 0.3 1027984
18:00−26з3795100 0.1 1027619
21:00−27з2797100 0.1 1028430
2 марта, вт
вт200:00−29з2498100 0.1 1028126
03:00−30зюз2398100 0.1 102873
06:00−32зюз229898 0.0 102834
09:00−31зюз249899 0.1 1028143
12:00−27з248994 0.0 1026501
15:00−25з128397 0.0 1026765
18:00−30ююз0094100 0.0 102519
21:00−33юв019782 0.0 102619
3 марта, ср
ср300:00−35ю019881 0.0 102619
03:00−35ююз009783 0.0 102519
06:00−35зсз0097100 0.0 102519
09:00−33з019798 0.0 102432
12:00−28сз1191100 0.0 1022313
15:00−26сз1286100 0.0 1020577
18:00−28зсз1296100 0.0 102020
21:00−29зсз2499100 0.1 1020131